Weather History for KGWR - January, 2013

Change the Weather History Date:

Thursday, January 10, 2013

  Actual Average (KP67) Record (KP67)
Temperature  
Mean Temperature 35 °F -  
Max Temperature 42 °F 13 °F 0 °F (1998)
Min Temperature 28 °F -2 °F -11 °F (1997)
Degree Days  
Heating Degree Days 30    
Moisture  
Dew Point 31 °F    
Average Humidity 76    
Maximum Humidity 100    
Minimum Humidity 57    
Precipitation  
Precipitation 0.00 in - - ()
Sea Level Pressure  
Sea Level Pressure 29.75 in    
Wind  
Wind Speed 23 mph (South)    
Max Wind Speed 36 mph    
Max Gust Speed 44 mph    
Visibility 10 miles    
Events      
Averages and records for this station are not official NWS values.
T = Trace of Precipitation, MM = Missing Value Source: NWS Daily Summary

Daily Weather History Graph

Daily Weather History Graph

Search for Another Location

Airport or City:

Trip Planner

Search our weather history database for the weather conditions in past years. The results will help you decide how hot, cold, wet, or windy it might be!

Date:

Astronomy

Jan. 10, 2013 Rise Set
Actual Time 8:11 AM CST 5:05 PM CST
Civil Twilight 7:37 AM CST 5:39 PM CST
Nautical Twilight 7:00 AM CST 6:16 PM CST
Astronomical Twilight 6:23 AM CST 6:52 PM CST
Moon 6:52 AM CST (1/10) 4:15 PM CST (1/10)
Length of Visible Light 10h 01m
Length of Day
8h 53m
Waning Crescent, 2% of the Moon is Illuminated
Jan 10
Waning Crescent
Jan 11
New
Jan 18
First Quarter
Jan 26
Full
Feb 3
Last Quarter

Hourly Weather History & Observations

Time (CST) Temp. Windchill Dew Point Humidity Pressure Visibility Wind Dir Wind Speed Gust Speed Precip Events Conditions
12:15 AM 28.4 °F 17.5 °F 24.8 °F 86% 29.99 in 10.0 mi South 13.8 mph - 0.00 in   Clear
12:35 AM 33.8 °F 22.5 °F 28.4 °F 81% 29.98 in 10.0 mi South 19.6 mph - 0.00 in   Clear
12:55 AM 35.6 °F 25.2 °F 30.2 °F 81% 29.97 in 10.0 mi SSW 18.4 mph - 0.00 in   Clear
2:35 AM 37.4 °F 26.9 °F 30.2 °F 75% 29.94 in 10.0 mi South 20.7 mph - 0.00 in   Clear
2:55 AM 37.4 °F 26.4 °F 30.2 °F 75% 29.93 in 10.0 mi South 23.0 mph - 0.00 in   Clear
3:15 AM 39.2 °F 28.5 °F 32.0 °F 75% 29.92 in 10.0 mi South 24.2 mph 32.2 mph 0.00 in   Clear
3:35 AM 39.2 °F 28.3 °F 30.2 °F 70% 29.92 in 10.0 mi South 25.3 mph 32.2 mph 0.00 in   Clear
3:55 AM 39.2 °F 28.0 °F 30.2 °F 70% 29.91 in 10.0 mi South 26.5 mph 35.7 mph 0.00 in   Clear
4:15 AM 39.2 °F 28.0 °F 30.2 °F 70% 29.90 in 10.0 mi South 26.5 mph 31.1 mph 0.00 in   Clear
4:35 AM 39.2 °F 29.0 °F 30.2 °F 70% 29.91 in 10.0 mi South 21.9 mph 28.8 mph 0.00 in   Clear
4:55 AM 39.2 °F 28.7 °F 30.2 °F 70% 29.89 in 10.0 mi South 23.0 mph 29.9 mph 0.00 in   Clear
5:35 AM 39.2 °F 27.8 °F 30.2 °F 70% 29.87 in 10.0 mi South 27.6 mph 34.5 mph 0.00 in   Clear
5:55 AM 39.2 °F 27.0 °F 30.2 °F 70% 29.85 in 10.0 mi South 32.2 mph 41.4 mph 0.00 in   Clear
6:15 AM 39.2 °F 27.4 °F 30.2 °F 70% 29.85 in 10.0 mi South 29.9 mph 38.0 mph 0.00 in   Clear
6:35 AM 39.2 °F 27.6 °F 30.2 °F 70% 29.85 in 10.0 mi South 28.8 mph 33.4 mph 0.00 in   Clear
6:55 AM 39.2 °F 26.8 °F 30.2 °F 70% 29.84 in 10.0 mi South 33.4 mph 42.6 mph 0.00 in   Clear
7:15 AM 39.2 °F 27.4 °F 30.2 °F 70% 29.85 in 10.0 mi South 29.9 mph 41.4 mph 0.00 in   Clear
7:35 AM 39.2 °F 26.6 °F 28.4 °F 65% 29.85 in 10.0 mi South 34.5 mph 40.3 mph 0.00 in   Clear
7:55 AM 39.2 °F 27.4 °F 28.4 °F 65% 29.86 in 10.0 mi South 29.9 mph 36.8 mph 0.00 in   Clear
8:35 AM 39.2 °F 27.4 °F 28.4 °F 65% 29.85 in 10.0 mi South 29.9 mph 35.7 mph 0.00 in   Clear
8:55 AM 39.2 °F 27.0 °F 28.4 °F 65% 29.85 in 10.0 mi South 32.2 mph 38.0 mph 0.00 in   Clear
9:15 AM 39.2 °F 27.2 °F 28.4 °F 65% 29.85 in 10.0 mi South 31.1 mph 40.3 mph 0.00 in   Clear
9:35 AM 41.0 °F 29.3 °F 28.4 °F 61% 29.85 in 10.0 mi South 33.4 mph 42.6 mph 0.00 in   Clear
9:55 AM 41.0 °F 29.0 °F 28.4 °F 61% 29.85 in 10.0 mi South 35.7 mph 42.6 mph 0.00 in   Clear
10:15 AM 41.0 °F 29.5 °F 28.4 °F 61% 29.84 in 10.0 mi South 32.2 mph 39.1 mph 0.00 in   Clear
10:35 AM 41.0 °F 30.0 °F 28.4 °F 61% 29.85 in 10.0 mi South 28.8 mph 38.0 mph 0.00 in   Clear
10:55 AM 41.0 °F 29.7 °F 28.4 °F 61% 29.84 in 10.0 mi South 31.1 mph 41.4 mph 0.00 in   Clear
11:15 AM 41.0 °F 30.0 °F 28.4 °F 61% 29.83 in 10.0 mi South 28.8 mph 41.4 mph 0.00 in   Clear
11:35 AM 42.8 °F 32.3 °F 28.4 °F 57% 29.82 in 10.0 mi South 29.9 mph 36.8 mph 0.00 in   Clear
11:55 AM 41.0 °F 29.8 °F 28.4 °F 61% 29.80 in 10.0 mi South 29.9 mph 39.1 mph 0.00 in   Clear
12:15 PM 41.0 °F 30.2 °F 30.2 °F 65% 29.79 in 10.0 mi South 27.6 mph 36.8 mph 0.00 in   Clear
12:35 PM 42.8 °F 31.9 °F 30.2 °F 61% 29.76 in 10.0 mi South 32.2 mph 40.3 mph 0.00 in   Clear
12:55 PM 42.8 °F 31.6 °F 30.2 °F 61% 29.75 in 10.0 mi South 34.5 mph 41.4 mph 0.00 in   Clear
1:15 PM 42.8 °F 31.9 °F 28.4 °F 57% 29.75 in 10.0 mi South 32.2 mph 43.7 mph 0.00 in   Clear
1:35 PM 42.8 °F 32.1 °F 28.4 °F 57% 29.73 in 10.0 mi South 31.1 mph 40.3 mph 0.00 in   Clear
1:55 PM 42.8 °F 32.1 °F 28.4 °F 57% 29.72 in 10.0 mi South 31.1 mph 39.1 mph 0.00 in   Clear
2:15 PM 42.8 °F 32.5 °F 28.4 °F 57% 29.71 in 10.0 mi South 28.8 mph 35.7 mph 0.00 in   Clear
2:35 PM 42.8 °F 32.9 °F 30.2 °F 61% 29.71 in 10.0 mi South 26.5 mph 35.7 mph 0.00 in   Clear
2:55 PM 42.8 °F 32.3 °F 28.4 °F 57% 29.70 in 10.0 mi South 29.9 mph 34.5 mph 0.00 in   Clear
3:15 PM 42.8 °F 33.1 °F 30.2 °F 61% 29.70 in 10.0 mi South 25.3 mph 31.1 mph 0.00 in   Clear
3:35 PM 42.8 °F 34.5 °F 30.2 °F 61% 29.70 in 10.0 mi South 18.4 mph 27.6 mph 0.00 in   Clear
3:55 PM 41.0 °F 31.9 °F 30.2 °F 65% 29.69 in 10.0 mi South 19.6 mph 27.6 mph 0.00 in   Clear
4:15 PM 39.2 °F 30.8 °F 32.0 °F 75% 29.70 in 10.0 mi SSE 15.0 mph - 0.00 in   Clear
4:35 PM 39.2 °F 31.2 °F 32.0 °F 75% 29.69 in 10.0 mi SSE 13.8 mph - 0.00 in   Scattered Clouds
4:55 PM 39.2 °F 31.2 °F 33.8 °F 81% 29.69 in 10.0 mi SSE 13.8 mph - 0.00 in   Overcast
5:15 PM 39.2 °F 31.6 °F 35.6 °F 87% 29.67 in 10.0 mi South 12.7 mph - 0.00 in   Overcast
5:35 PM 39.2 °F 32.0 °F 35.6 °F 87% 29.66 in 10.0 mi South 11.5 mph - 0.00 in   Overcast
5:55 PM 37.4 °F 29.3 °F 35.6 °F 93% 29.65 in 10.0 mi SSE 12.7 mph - 0.00 in   Overcast
6:15 PM 37.4 °F 28.2 °F 35.6 °F 93% 29.63 in 10.0 mi SSE 16.1 mph - 0.00 in   Overcast
6:35 PM 37.4 °F 28.2 °F 33.8 °F 87% 29.63 in 10.0 mi ESE 16.1 mph - 0.00 in   Overcast
6:55 PM 35.6 °F 26.2 °F 33.8 °F 93% 29.61 in 10.0 mi SE 15.0 mph 21.9 mph 0.00 in   Mostly Cloudy
7:15 PM 35.6 °F 26.2 °F 33.8 °F 93% 29.60 in 10.0 mi SE 15.0 mph - 0.00 in   Mostly Cloudy
7:35 PM 35.6 °F 25.9 °F 35.6 °F 100% 29.60 in 10.0 mi SE 16.1 mph - 0.00 in   Overcast
7:55 PM 35.6 °F 26.2 °F 35.6 °F 100% 29.61 in 10.0 mi SE 15.0 mph - 0.00 in   Overcast
8:15 PM 35.6 °F 25.9 °F 35.6 °F 100% 29.61 in 10.0 mi SE 16.1 mph - 0.00 in   Overcast
8:35 PM 35.6 °F 25.9 °F 35.6 °F 100% 29.59 in 10.0 mi SSE 16.1 mph - 0.00 in   Overcast
8:55 PM 35.6 °F 25.9 °F 35.6 °F 100% 29.58 in 10.0 mi SSE 16.1 mph 20.7 mph 0.00 in   Overcast
9:15 PM 37.4 °F 29.3 °F 35.6 °F 93% 29.58 in 10.0 mi South 12.7 mph - 0.00 in   Overcast
9:35 PM 35.6 °F 27.1 °F 33.8 °F 93% 29.57 in 10.0 mi SSE 12.7 mph 18.4 mph 0.00 in   Overcast
9:55 PM 35.6 °F 26.2 °F 35.6 °F 100% 29.56 in 10.0 mi SSE 15.0 mph - 0.00 in   Overcast
10:15 PM 35.6 °F 28.0 °F 35.6 °F 100% 29.55 in 10.0 mi SSE 10.4 mph - 0.00 in   Overcast
10:35 PM 35.6 °F 29.2 °F 35.6 °F 100% 29.55 in 10.0 mi SSE 8.1 mph - 0.00 in   Overcast
10:55 PM 35.6 °F 28.6 °F 35.6 °F 100% 29.54 in 10.0 mi SSE 9.2 mph - 0.00 in   Overcast
11:15 PM 33.8 °F 25.8 °F 33.8 °F 100% 29.53 in 8.0 mi SE 10.4 mph - 0.00 in   Overcast
11:35 PM 33.8 °F 27.0 °F 33.8 °F 100% 29.52 in 7.0 mi SE 8.1 mph - 0.00 in   Overcast
11:55 PM 33.8 °F 27.0 °F 33.8 °F 100% 29.51 in 7.0 mi SE 8.1 mph - 0.00 in   Overcast